Location: Texas Valley
(42.4862°N, 75.9730°W)
Time: 00:09:43
(UTC+00:00)

Tiangong - Pass Details

Date: 25 April 2024
Orbit: 372 x 375 km, 41.5° (Epoch: 20 May)

Event Time Altitude Azimuth Distance (km) Brightness Sun altitude
Rises 00:32:55 0° 272° (W) 2,264 3.2 -7.0°
Reaches altitude 10° 00:35:01 10° 270° (W) 1,405 1.9 -7.4°
Maximum altitude 00:38:10 69° 186° (S) 410 -2.1 -7.9°
Enters shadow 00:41:06 11° 103° (ESE) 1,317 -0.1 -8.4°
